Regional Weather Roundup
Issued by NWS Goodland, KS

Home | Current Version | Previous Version | Graphics & Text | Print | Product List | Glossary On
Versions: 1 2 3 4 5 6 7 8 9 10 11 12 13 14 15 16 17 18 19 20 21 22 23 24 25 26 27 28 29 30 31 32 33 34 35 36 37 38 39 40 41 42 43 44 45 46 47 48 49 50
000
ASUS43 KGLD 141808
RWRGLD

GOODLAND FORECAST AREA HOURLY WEATHER ROUNDUP
NATIONAL WEATHER SERVICE GOODLAND KS
1100 AM MST SUN FEB 14 2016

...OFFICIAL OBSERVATIONS...

CITY           SKY/WX    TMP DP  RH WIND       PRES   REMARKS
GOODLAND KS    CLOUDY    46  23  40 W10       29.96R
HILL CITY KS   CLOUDY    50  28  42 W8        29.94S
IMPERIAL NEB   CLOUDY    42  27  55 W14       29.92S
MCCOOK NEB     CLOUDY    43  28  55 W14       29.91S
AKRON CO       CLOUDY    41  19  41 S15       29.91F
BURLINGTON CO  CLOUDY    42  26  53 SW14      29.95S
LIMON CO       CLOUDY    39  28  64 S13       29.92F
$$

...UNOFFICIAL OBSERVATIONS...

CITY           SKY/WX    TMP DP  RH WIND       PRES   REMARKS
COLBY KS       CLOUDY    43  34  70 W10       29.95F
GOVE KS          N/A     49  32  52 MISG        N/A
LENORA KS        N/A     45  32  60 MISG        N/A
NORTON KS      MOSUNNY   45  27  49 W9        29.90F
SHARON SPRINGS   N/A     45  29  53 SW7G14      N/A
TRENTON NEB      N/A     45  32  60 MISG        N/A
KIT CARSON CO    N/A     41  32  69 MISG        N/A
YUMA CO          N/A     44  27  50 SW10        N/A
$$



USA.gov is the U.S. government's official web portal to all federal, state and local government web resources and services.